SENTINEL-3B (43437 NORAD) Tracking and Keplerian Element Data

This shows tracking and keplerian element data for the satellite.

Feedback or suggestion? Click here.




ElementValue
Catalog43437
NameSENTINEL-3B
Epoch Orbit2877
Epoch Day317.61108636
Epoch Year2018
RAAN22.6086
Inclination98.6239
Eccentricity0.0004806
Argument of Perigee199.1035
Mean Anonmoly160.9966
Mean Motion14.28054387
Decay Rate4E-08
L11 43437U 18039A 18317.61108636 .00000004 00000-0 19339-4 0 9996
L22 43437 98.6239 22.6086 0004806 199.1035 160.9966 14.28054387 28773

Live tracking and technical data element details for SENTINEL-3B (NORAD 43437). SENTINEL-3B can be tracked NOW for your location showing map with azimuth and elevation plus other details from your city location.

Track the satellite on the map from your city or location and see movement details for azimuth, elevation, latitude, longitude, range, height, and movement on the map or in text.







IsCatalogInMostPopularTable: catalog: 43437, numindb: 147
Update: records affected: 1



GetName: 43437 SENTINEL-3B

Hit Count: updated at: Wed, 14 Nov 2018 16:22:46 GMT